Location: San Vito
(41.8833°N, 12.9833°E)
Time: 02:47:15
(UTC+00:00)

Cosmos 158 Rocket - Pass Details

Date: 17 November 2019
Orbit: 699 x 792 km, 74.0° (Epoch: 14 December)

Event Time Altitude Azimuth Distance (km) Brightness Sun altitude
Exits shadow 04:34:13 23° 307° (NW) 1,484 5.0 -15.9°
Maximum altitude 04:36:33 36° 258° (WSW) 1,101 4.4 -15.5°
Drops below altitude 10° 04:40:59 10° 192° (SSW) 2,156 6.3 -14.7°
Sets 04:43:25 0° 184° (S) 3,067 7.2 -14.2°
